Temp
31 30 28 28 29 30 30 29 30 30 31 31 30 29 28 28 28 27 27 27 27 27 28 28 28 27 28 26 26 26 26 26 25 26 25 25 25 25 26 25 25 25 25 24
29 28 30 30 30 30 29 29 30 32 31 31 28 29 28 29 29 28 28 27 28 28 26 26 27 27 27 27 27 26 26 26 26 27 26 26 26 26 26 25 25 25 25 25
28 30 30 31 29 30 28 29 29 31 31 29 29 28 28 28 28 29 29 29 29 28 26 25 26 27 27 26 26 27 27 27 27 27 26 25 26 26 26 26 26 26 25 25
29 30 32 30 29 29 28 30 31 32 30 29 30 27 25 26 27 28 28 28 29 27 27 26 26 26 26 27 28 26 27 27 27 26 26 26 26 26 26 26 26 26 26 26
30 33 32 31 31 29 29 31 31 32 28 29 28 27 28 25 27 27 28 29 29 28 28 27 27 27 27 27 26 27 27 27 27 27 26 26 26 27 27 27 26 26 26 26
29 31 32 31 33 30 31 29 27 26 25 26 27 28 30 26 28 29 28 29 30 29 29 29 28 28 27 27 26 26 27 27 27 27 26 26 27 27 26 26 27 27 26 26
29 30 32 33 33 31 27 27 24 27 26 26 26 28 31 29 29 30 29 29 30 30 29 29 27 27 27 27 27 26 26 26 27 27 27 27 27 26 26 26 27 27 26 26
27 29 31 32 32 30 27 27 25 28 25 27 26 27 31 30 29 29 30 30 30 31 29 30 29 28 27 27 27 26 26 26 27 27 27 27 27 27 27 27 27 27 27 27
25 28 30 33 34 32 30 29 29 25 24 26 26 28 30 29 28 29 28 30 30 31 30 30 30 29 28 27 27 27 26 27 26 27 27 27 27 27 27 27 27 27 27 27
28 30 30 32 33 32 32 28 29 24 30 30 27 28 28 30 28 28 28 29 30 31 31 30 30 30 29 28 27 27 27 28 27 27 27 27 27 27 27 27 26 27 27 26
25 27 30 32 31 32 29 29 24 24 24 26 27 27 26 29 28 29 28 28 28 28 29 28 29 31 29 28 28 26 26 26 26 27 27 27 27 27 27 27 26 26 26 26
26 24 27 29 31 30 29 29 25 25 28 23 24 27 31 29 30 29 28 29 28 28 27 28 26 28 28 27 27 26 25 25 25 27 27 27 27 27 26 26 26 26 27 27
27 26 26 28 28 30 32 28 24 22 22 23 27 27 29 27 29 28 28 26 28 29 26 26 26 25 24 22 24 25 26 25 25 26 26 27 27 27 26 26 26 26 26 26
26 23 26 26 29 29 32 33 28 26 25 24 25 30 29 29 28 27 27 27 28 29 28 26 25 25 23 23 23 27 27 27 25 26 26 26 27 26 26 26 26 26 26 26
27 29 28 28 29 31 32 32 29 28 28 29 29 28 29 29 29 29 28 28 28 28 29 26 26 24 24 22 22 27 29 26 24 25 26 26 27 27 26 26 26 26 25 26
24 28 28 31 30 30 32 31 30 30 27 30 30 31 30 30 27 28 27 27 28 28 29 27 25 25 26 24 21 22 24 23 25 25 26 27 27 26 26 26 25 26 25 26
26 25 25 27 27 31 31 33 34 32 30 29 30 30 29 27 28 26 26 28 29 29 28 25 25 25 26 26 25 25 24 26 25 26 27 27 26 26 25 25 25 25 25 25
25 24 22 25 27 29 29 29 31 31 32 30 30 30 27 26 24 24 26 28 28 27 25 25 24 25 26 26 26 25 24 26 26 27 26 26 26 26 26 25 25 25 25 25
25 23 25 26 25 28 32 31 31 32 32 31 29 26 24 24 25 25 23 25 25 24 24 25 27 27 26 25 25 26 26 26 27 26 26 26 26 26 25 25 24 25 25 25
21 22 26 22 29 29 29 28 28 28 30 29 26 25 25 25 27 24 23 23 23 23 24 25 25 25 25 25 26 25 24 26 26 26 26 26 25 25 25 25 25 25 25 26
23 23 25 23 26 26 28 26 25 31 28 24 28 26 26 27 25 23 22 22 22 21 22 25 25 25 24 25 25 24 25 25 27 26 26 25 25 25 25 25 25 26 26 25
25 24 24 22 26 30 25 27 27 25 23 27 27 25 24 21 23 22 21 22 22 24 25 24 25 24 25 25 25 24 24 26 26 25 26 26 26 26 26 26 26 25 25 25
25 23 23 25 25 24 25 26 25 22 24 24 26 24 22 23 23 23 23 21 21 22 22 25 23 22 24 26 26 25 25 26 25 25 26 26 26 26 26 26 25 24 24 24
23 21 22 24 26 25 24 24 24 24 25 24 24 24 23 23 22 22 21 20 21 22 22 22 23 23 22 24 25 25 25 25 25 26 26 26 26 26 25 24 24 24 24 23
21 21 22 22 23 23 22 23 23 23 24 24 24 24 23 22 21 21 19 21 22 22 22 21 23 23 23 24 24 24 24 24 26 26 25 25 25 24 23 23 22 23 22 22
19 22 23 23 22 22 22 22 23 22 23 23 24 25 24 23 21 20 19 20 20 21 22 22 22 21 20 23 22 22 22 22 21 22 23 24 24 22 21 21 19 19 19 19
Height
755 776 792 783 776 773 779 791 791 783 772 780 786 791 790 785 787 790 792 790 790 790 785 789 793 799 804 808 811 813 815 818 822 825 826 828 829 828 829 830 833 834 835 836
774 788 766 764 770 776 786 793 799 781 773 781 793 794 788 782 775 776 781 784 783 782 785 785 790 796 799 802 806 810 813 816 819 821 824 827 828 827 828 830 831 833 834 835
782 770 760 765 777 785 792 795 796 789 779 783 791 802 790 781 783 781 776 772 775 779 782 785 788 791 796 800 803 805 809 813 817 820 823 825 827 827 827 828 829 831 834 834
769 754 760 770 779 779 800 775 777 781 792 814 785 831 798 790 788 780 776 774 773 775 775 778 784 789 793 794 798 802 807 811 815 818 821 823 824 826 825 827 829 831 833 834
769 755 760 774 768 769 780 764 775 778 800 799 804 821 784 789 789 779 772 769 767 768 771 775 778 781 785 791 794 798 804 809 813 815 818 820 822 825 826 827 828 830 831 833
759 744 749 757 749 756 752 777 791 801 813 835 807 811 789 786 762 762 767 762 759 763 766 769 772 778 785 790 793 796 800 804 810 813 815 818 820 822 825 826 826 827 830 833
765 757 744 740 758 757 769 791 843 840 843 838 808 815 775 747 746 745 748 755 752 755 760 762 768 773 779 783 787 793 798 801 806 810 813 815 818 821 823 824 825 826 828 831
791 791 753 738 749 766 777 781 825 837 852 825 806 818 771 736 734 731 734 739 743 746 748 753 758 763 769 775 781 788 793 797 801 806 809 813 816 819 821 823 824 825 826 828
792 783 743 734 730 745 770 786 770 813 821 825 812 783 748 737 739 736 739 737 740 738 745 749 753 758 763 771 775 780 787 793 797 800 806 810 814 816 819 821 823 824 826 828
757 776 749 737 732 737 748 756 792 810 817 823 817 801 789 751 750 742 742 738 734 734 738 744 748 752 758 762 769 779 783 788 793 798 801 806 809 813 816 819 821 822 824 826
755 766 763 742 752 754 762 771 788 796 809 828 829 809 751 739 735 736 736 732 731 734 736 738 741 746 755 765 777 784 787 792 796 797 800 804 808 810 813 816 819 820 822 823
742 769 777 761 736 734 745 757 772 805 802 816 817 797 726 725 718 724 731 726 726 727 728 730 737 743 760 776 783 791 792 797 798 799 800 802 806 809 811 813 816 818 820 821
734 764 791 775 756 739 744 751 768 782 794 813 808 789 725 723 719 724 724 727 724 725 729 731 735 747 760 770 774 792 787 791 798 797 799 801 803 806 808 811 814 817 819 820
721 762 768 790 765 752 747 739 752 766 795 799 793 759 737 725 725 723 722 721 721 720 723 725 735 751 758 764 774 778 777 781 787 791 794 798 800 803 806 809 813 815 818 820
726 751 750 750 744 739 738 740 751 759 755 767 755 759 733 721 718 712 712 716 722 722 720 722 729 745 754 759 762 762 756 765 778 785 790 794 798 802 804 808 812 814 816 818
732 753 746 746 740 739 739 734 738 737 747 737 737 740 711 705 711 714 715 716 718 718 713 716 726 736 748 753 753 761 758 763 773 782 786 791 795 799 802 807 810 812 813 815
740 753 768 771 753 740 755 729 723 725 726 730 745 721 709 716 710 712 714 709 708 710 713 716 717 729 736 743 747 746 749 757 771 779 786 790 794 798 802 805 808 810 813 814
745 754 772 772 758 776 739 716 711 720 711 710 710 706 703 705 706 704 703 701 704 709 711 713 716 725 731 737 745 749 747 760 767 778 784 789 793 797 801 804 807 809 811 812
732 751 764 771 778 754 724 719 721 722 718 700 705 707 707 706 707 710 704 697 699 703 704 707 712 720 732 736 739 745 746 757 767 775 781 785 788 795 800 803 806 808 810 811
740 742 753 778 764 770 736 717 710 713 739 703 701 705 705 704 726 716 704 705 707 709 712 713 717 723 728 736 739 746 749 756 767 774 778 784 790 793 797 802 806 808 809 810
755 756 762 773 765 751 722 715 710 736 745 712 703 699 701 705 705 700 705 710 713 717 716 714 718 721 726 733 740 746 749 755 764 771 780 785 789 794 796 800 803 807 808 809
755 760 763 769 761 751 717 713 733 726 715 705 698 704 709 699 700 699 706 711 712 715 715 732 722 722 722 734 742 749 754 758 766 774 779 784 787 793 796 799 802 803 806 808
757 749 753 745 744 722 716 717 714 714 709 705 700 697 704 707 703 703 708 712 713 720 715 716 738 737 724 733 745 750 755 759 766 775 780 785 788 793 797 798 800 803 805 806
738 739 747 738 721 719 719 716 714 707 700 696 694 696 695 707 696 701 707 714 713 716 718 723 735 732 730 737 744 754 763 764 770 774 779 785 789 793 797 799 801 801 802 804
741 739 741 740 723 715 719 719 715 708 698 691 692 696 702 708 706 704 708 710 709 713 719 725 720 723 729 738 749 763 770 776 776 778 782 785 789 794 795 797 799 800 801 803
737 735 742 741 726 726 726 722 715 713 705 694 693 695 699 704 708 716 712 708 711 712 722 731 727 725 734 733 751 761 767 776 785 785 789 789 789 792 794 796 801 805 807 808
Wind_Speed
2 4 7 10 9 4 4 2 3 5 2 1 2 3 15 17 15 15 14 13 13 13 17 25 30 31 34 32 33 34 31 26 24 23 19 15 13 11 13 13 8 10 5 9
5 6 7 6 5 5 5 3 3 3 6 3 3 1 8 18 21 20 19 16 16 14 8 15 21 27 33 35 36 37 32 27 27 26 22 15 13 11 13 9 14 9 9 9
6 6 10 6 5 6 3 7 5 5 7 3 3 5 6 6 8 11 14 16 15 14 9 9 16 24 29 31 36 39 36 31 29 26 22 14 13 13 13 15 14 11 12 9
5 4 7 6 5 6 7 10 7 8 6 4 5 5 7 6 7 11 13 11 12 9 9 12 16 20 27 36 40 40 36 34 32 27 24 21 18 12 14 14 14 12 11 9
8 1 3 4 8 9 11 11 13 8 4 3 2 2 8 4 15 16 14 16 14 11 11 14 20 29 34 32 35 38 36 36 33 29 26 24 20 17 10 11 13 15 13 8
8 1 4 8 3 15 4 7 7 6 3 2 7 7 10 8 20 19 10 16 17 12 13 14 25 24 24 26 30 35 35 37 36 32 28 27 22 19 13 13 14 16 15 11
5 4 3 4 4 2 7 8 3 3 2 7 6 5 17 8 7 17 22 18 19 15 14 15 13 18 23 29 31 32 35 35 38 35 31 28 24 21 16 14 12 10 18 15
6 5 8 4 8 9 8 9 6 7 5 5 6 7 10 6 8 9 14 19 19 18 16 18 17 25 29 30 33 33 35 36 39 36 34 30 25 20 17 13 11 13 17 17
6 5 5 3 2 8 4 2 4 8 3 3 4 7 10 5 6 6 9 16 20 21 16 18 19 25 28 29 33 39 37 39 38 38 36 31 29 24 21 16 13 12 16 20
7 0 4 4 3 1 5 8 4 3 4 4 5 5 6 5 7 8 9 15 18 17 17 14 15 24 28 33 35 34 37 40 39 37 37 34 30 28 21 16 16 16 15 15
6 3 5 0 4 6 2 0 6 5 4 6 2 6 8 11 11 16 13 12 15 15 14 13 11 24 23 22 20 21 26 27 31 34 34 33 30 28 26 24 18 16 13 13
8 5 4 10 3 2 4 7 6 5 4 1 4 7 3 11 12 13 13 13 13 14 13 12 10 19 21 23 22 11 9 12 23 30 31 31 29 28 26 24 24 22 17 13
9 2 2 10 7 3 4 3 6 6 4 6 5 7 5 5 6 8 13 9 14 13 8 9 9 12 33 35 34 13 39 24 25 28 30 30 29 27 26 24 21 21 18 13
8 4 7 7 8 3 3 2 5 7 4 5 7 7 8 8 8 9 8 11 13 15 16 10 10 18 35 42 46 20 38 34 28 31 31 29 27 27 24 21 18 16 17 16
4 2 4 3 5 3 3 6 8 8 7 8 9 8 9 11 12 15 13 10 10 9 11 10 11 18 34 43 46 46 42 35 26 29 28 28 23 23 20 18 15 13 12 11
5 1 4 2 3 3 4 6 7 5 3 6 2 8 5 2 6 5 13 11 12 13 14 8 9 17 31 43 41 39 39 25 27 29 28 25 22 21 18 15 14 10 9 4
3 3 3 5 4 2 4 4 3 5 6 7 6 12 4 4 8 10 11 15 15 14 12 8 10 15 30 39 43 42 30 32 31 28 22 22 20 19 14 11 11 11 8 6
4 4 2 3 2 2 8 5 7 7 7 6 4 5 10 8 2 4 1 13 10 9 9 9 6 13 23 31 34 27 28 32 26 22 22 19 17 14 11 10 8 7 6 6
4 5 2 1 2 5 6 5 5 3 6 3 5 6 7 9 5 3 3 4 7 6 7 10 19 17 21 29 33 31 30 28 26 26 22 20 18 14 12 10 9 10 9 7
5 4 4 2 2 2 7 6 2 4 5 7 5 12 15 9 5 6 3 5 8 6 6 14 21 25 26 24 34 32 31 33 29 25 23 19 18 17 15 14 12 11 8 6
4 3 4 2 3 7 3 11 4 3 6 11 3 10 11 4 2 6 7 7 9 11 12 21 21 19 23 27 30 26 31 31 28 25 21 21 18 17 16 16 12 9 5 3
2 3 3 3 2 3 4 5 6 6 5 6 3 2 9 8 11 14 8 10 13 15 22 17 9 20 27 24 22 22 23 27 25 26 25 23 20 18 17 14 11 5 3 1
2 4 3 6 5 2 2 5 4 5 4 3 4 4 6 4 5 13 14 9 5 7 7 26 27 3 24 26 22 23 25 28 28 27 24 22 20 19 15 11 7 6 2 2
2 2 2 2 3 3 3 1 5 4 3 7 4 2 8 7 11 8 7 8 7 13 16 28 30 20 24 21 19 20 24 28 29 27 24 20 18 15 11 7 5 5 10 12
3 4 1 4 8 6 3 5 2 8 4 11 6 4 6 4 2 7 6 9 6 9 13 6 16 19 23 23 20 20 17 17 22 20 19 17 14 11 10 12 11 11 11 13
3 4 3 4 5 2 4 4 2 6 6 5 8 3 1 1 3 6 6 8 4 12 13 8 16 28 28 35 30 26 21 14 8 6 7 11 14 22 25 29 29 26 24 23
Wind_Direction
33 110 191 192 201 207 193 312 347 352 192 352 168 101 184 185 193 193 205 210 216 221 225 218 206 193 199 200 199 198 198 200 195 189 191 203 228 241 237 237 230 230 220 208
38 199 199 213 172 172 191 209 141 249 143 114 55 164 197 201 200 194 198 207 219 225 182 199 185 183 191 198 201 201 199 192 190 186 192 200 217 240 240 239 240 235 229 222
172 203 145 162 150 152 166 198 174 183 136 66 103 317 214 227 235 224 217 209 214 216 183 185 176 182 187 194 200 201 199 192 190 191 192 194 216 234 233 238 244 230 229 234
229 246 162 166 178 139 196 185 171 163 155 193 156 266 258 182 243 223 216 210 215 200 190 179 183 182 187 199 204 200 200 195 193 195 199 201 205 217 227 234 236 234 234 236
242 172 133 140 220 173 221 163 183 204 86 95 359 55 259 121 214 232 212 211 217 204 186 182 188 192 197 195 198 200 202 201 198 199 201 201 202 214 227 228 240 238 229 221
236 219 163 205 199 191 92 94 53 53 60 9 200 170 277 197 219 212 210 207 211 195 194 195 197 194 192 192 195 199 201 202 200 201 201 201 208 214 229 234 249 238 225 229
310 242 247 174 163 65 83 97 35 5 351 229 104 151 239 263 218 202 195 194 207 197 192 197 178 182 185 188 193 198 201 203 201 202 206 209 216 225 229 221 224 233 217 224
169 304 171 178 179 180 191 151 155 182 191 248 74 214 250 265 250 161 181 184 198 204 193 197 191 186 189 189 190 195 200 203 203 206 210 211 214 222 224 228 239 236 230 235
156 269 285 216 176 134 232 175 203 102 23 94 223 278 302 19 95 133 142 175 197 208 196 200 197 195 192 188 193 197 201 206 208 209 214 219 219 220 224 228 230 226 235 245
210 86 215 264 173 77 183 160 73 350 155 228 290 288 244 270 187 174 159 184 198 203 206 197 202 200 194 194 196 195 204 206 214 214 217 220 222 219 219 221 222 228 233 249
135 121 258 187 183 200 48 307 55 120 113 158 192 262 222 223 200 182 186 187 188 190 200 202 191 198 196 198 187 191 207 206 213 217 220 221 224 224 223 226 227 235 248 253
193 144 204 227 226 141 199 198 136 127 228 155 160 266 270 240 211 153 188 194 191 189 188 197 153 170 122 114 102 33 338 243 229 226 224 221 224 225 226 228 231 234 246 253
181 222 27 337 357 12 206 167 113 106 86 190 151 264 305 286 187 152 175 177 195 185 183 159 168 108 114 113 118 257 266 272 259 233 229 226 221 225 227 230 234 233 235 243
81 112 154 192 208 176 308 144 146 128 122 184 218 269 300 272 170 166 175 186 191 194 190 187 124 122 126 134 122 147 252 243 242 229 226 226 220 223 227 232 237 237 238 249
94 152 168 238 235 204 228 258 159 182 207 171 228 214 260 223 203 186 177 184 190 212 196 187 146 135 144 144 150 156 203 229 221 217 218 221 220 223 225 226 230 234 233 235
350 45 38 257 222 218 238 250 241 239 183 252 180 250 190 220 106 151 172 181 188 201 218 196 141 144 159 165 173 178 215 208 206 213 208 209 215 217 220 222 233 236 232 262
58 98 72 270 313 19 352 251 249 250 191 155 157 222 134 157 172 189 188 190 198 189 198 196 192 158 163 176 182 192 191 192 200 198 198 203 212 213 215 212 218 221 215 239
139 100 124 232 351 110 239 258 232 239 266 207 281 212 182 169 33 75 174 199 190 169 170 195 170 159 163 167 182 185 186 187 177 180 187 186 183 188 185 181 181 183 183 171
161 124 85 146 200 282 314 16 19 312 284 280 211 170 141 133 114 341 296 204 181 156 159 173 187 167 165 165 169 170 164 170 169 178 178 171 170 172 178 182 186 175 172 161
75 84 133 132 143 248 236 287 304 250 288 339 180 165 158 165 128 232 96 45 67 66 105 138 144 150 149 157 162 158 156 160 173 174 169 169 168 164 166 175 174 171 163 148
342 40 163 159 204 283 288 303 312 146 253 307 279 179 170 205 212 109 113 81 70 57 54 123 127 128 141 154 156 151 154 162 171 170 173 165 164 167 169 163 170 163 159 155
210 160 199 107 131 269 345 359 110 242 301 288 35 332 323 133 131 138 124 128 123 117 97 40 103 128 144 149 151 148 158 165 165 168 165 164 164 169 167 170 163 161 170 231
272 195 229 176 210 210 4 128 255 257 246 273 228 158 131 200 132 153 155 156 160 89 131 124 278 185 138 153 168 160 168 160 161 162 162 163 159 164 171 171 170 159 181 163
274 143 227 11 256 208 176 128 282 281 22 7 26 177 124 244 170 151 126 143 168 160 163 173 171 144 124 149 159 166 163 160 162 157 159 161 163 165 172 172 156 152 142 135
219 2 332 279 282 295 121 99 291 292 328 61 58 51 24 336 244 154 132 185 170 111 117 201 117 116 126 125 121 144 145 163 163 165 163 163 164 166 156 124 123 136 132 150
192 197 155 239 297 279 155 104 160 284 290 77 82 64 351 354 338 9 149 225 122 101 100 101 102 104 112 118 118 111 96 75 54 116 169 172 156 139 131 120 105 101 108 113